^^
Station Historical Data
 
Daily Summary for July 22, 2018 Units:  Metric    English   Both
« Previous Day
Next Day »
Daily Weekly Monthly Yearly Custom
  Current: High: Low: Average:
Temperature: 16.9 °C -17.8 °C 13.7 °C 16.9 °C
Dew Point: 15.6 °C -17.8 °C 11.9 °C 14.3 °C
Humidity: 92 % Humidity % 74 % 84 %
Wind Speed: 0 km/h 0 km/h 0 km/h 0 km/h
Wind Gust: 3.2 km/h 0 km/h - -
Wind:Calm - - ESE
Pressure: 1016.5 hPa 0 hPa 1015.8 hPa -
Precipitation: 2.29 mm      
Historical Graphs
 
 
Tabular Data for July 22, 2018
Time Temperature Dew Point Pressure Wind Wind Speed Wind Gust Humidity Rainfall Rate (Hourly) solar Conditions
-17.8 °C -17.8 °C 0 hPa Calm     Humidity % 0 mm SoftwareType W/m2 Conditions
00:00 20.2 °C 15.8 °C 1016.1 hPa Calm     76 % 0 mm WeatherDisplay:10.37 W/m2 FEW
00:05 20.1 °C 15.8 °C 1016.1 hPa Calm     76 % 0 mm WeatherDisplay:10.37 W/m2 FEW
00:10 20.1 °C 15.7 °C 1016.1 hPa Calm     76 % 0 mm WeatherDisplay:10.37 W/m2 FEW
00:15 19.9 °C 15.6 °C 1016.1 hPa Calm     76 % 0 mm WeatherDisplay:10.37 W/m2 FEW
00:20 19.8 °C 15.7 °C 1016.1 hPa Calm     77 % 0 mm WeatherDisplay:10.37 W/m2 FEW
00:25 19.7 °C 15.6 °C 1016.1 hPa Calm     77 % 0 mm WeatherDisplay:10.37 W/m2 FEW
00:30 19.6 °C 15.5 °C 1016.1 hPa Calm     77 % 0 mm WeatherDisplay:10.37 W/m2 FEW
00:35 19.6 °C 15.4 °C 1016.1 hPa Calm     77 % 0 mm WeatherDisplay:10.37 W/m2 FEW
00:40 19.4 °C 15.5 °C 1016.1 hPa Calm     78 % 0 mm WeatherDisplay:10.37 W/m2 FEW
00:45 19.4 °C 15.4 °C 1016.1 hPa Calm     78 % 0 mm WeatherDisplay:10.37 W/m2 FEW
00:50 19.3 °C 15.6 °C 1016.1 hPa Calm     79 % 0 mm WeatherDisplay:10.37 W/m2 FEW
00:55 19.2 °C 15.5 °C 1016.1 hPa Calm     79 % 0 mm WeatherDisplay:10.37 W/m2 FEW
01:00 19.2 °C 15.4 °C 1016.1 hPa Calm     79 % 0 mm WeatherDisplay:10.37 W/m2 FEW
01:05 19.1 °C 15.3 °C 1016.1 hPa Calm     79 % 0 mm WeatherDisplay:10.37 W/m2 FEW
01:10 19 °C 15.3 °C 1016.1 hPa Calm     79 % 0 mm WeatherDisplay:10.37 W/m2 FEW
01:15 18.9 °C 15.4 °C 1016.1 hPa Calm     80 % 0 mm WeatherDisplay:10.37 W/m2 FEW
01:20 18.8 °C 15.1 °C 1016.1 hPa Calm     79 % 0 mm WeatherDisplay:10.37 W/m2 FEW
01:25 18.7 °C 15 °C 1016.1 hPa Calm     79 % 0 mm WeatherDisplay:10.37 W/m2 FEW
01:30 18.7 °C 15.2 °C 1016.1 hPa Calm     80 % 0 mm WeatherDisplay:10.37 W/m2 FEW
01:35 18.6 °C 15.1 °C 1016.1 hPa Calm     80 % 0 mm WeatherDisplay:10.37 W/m2 FEW
01:40 18.5 °C 15 °C 1016.1 hPa Calm     80 % 0 mm WeatherDisplay:10.37 W/m2 FEW
01:45 18.4 °C 15.1 °C 1016.1 hPa Calm     81 % 0 mm WeatherDisplay:10.37 W/m2 FEW
01:50 18.3 °C 15 °C 1016.1 hPa Calm     81 % 0 mm WeatherDisplay:10.37 W/m2 FEW
01:55 18.2 °C 15.1 °C 1016.1 hPa Calm     82 % 0 mm WeatherDisplay:10.37 W/m2 FEW
02:00 18.1 °C 14.9 °C 1016.1 hPa Calm     82 % 0 mm WeatherDisplay:10.37 W/m2 FEW
02:05 18 °C 14.9 °C 1016.1 hPa Calm     82 % 0 mm WeatherDisplay:10.37 W/m2 FEW
02:10 17.9 °C 14.8 °C 1016.1 hPa Calm     82 % 0 mm WeatherDisplay:10.37 W/m2 FEW
02:15 17.8 °C 14.7 °C 1016.1 hPa Calm     82 % 0 mm WeatherDisplay:10.37 W/m2 FEW
02:20 17.7 °C 14.7 °C 1016.1 hPa Calm     83 % 0 mm WeatherDisplay:10.37 W/m2 FEW
02:25 17.5 °C 14.6 °C 1016.1 hPa Calm     83 % 0 mm WeatherDisplay:10.37 W/m2 FEW
02:30 17.4 °C 14.5 °C 1016.1 hPa Calm     83 % 0 mm WeatherDisplay:10.37 W/m2 FEW
02:35 17.3 °C 14.4 °C 1016.1 hPa Calm     83 % 0 mm WeatherDisplay:10.37 W/m2 FEW
02:40 17.2 °C 14.3 °C 1016.1 hPa Calm     83 % 0 mm WeatherDisplay:10.37 W/m2 FEW
02:45 17.1 °C 14.4 °C 1016.1 hPa Calm     84 % 0 mm WeatherDisplay:10.37 W/m2 FEW
02:50 17 °C 14.3 °C 1015.8 hPa Calm     84 % 0 mm WeatherDisplay:10.37 W/m2 FEW
02:55 16.9 °C 14.2 °C 1015.8 hPa Calm     84 % 0 mm WeatherDisplay:10.37 W/m2 FEW
03:00 16.8 °C 14.1 °C 1016.1 hPa Calm     84 % 0 mm WeatherDisplay:10.37 W/m2 FEW
03:05 16.7 °C 14 °C 1016.1 hPa Calm     84 % 0 mm WeatherDisplay:10.37 W/m2 FEW
03:10 16.6 °C 14.1 °C 1016.1 hPa Calm     85 % 0 mm WeatherDisplay:10.37 W/m2 FEW
03:15 16.6 °C 14 °C 1016.1 hPa Calm     85 % 0 mm WeatherDisplay:10.37 W/m2 FEW
03:20 16.4 °C 13.9 °C 1016.1 hPa Calm     85 % 0 mm WeatherDisplay:10.37 W/m2 FEW
03:25 16.4 °C 13.8 °C 1016.1 hPa Calm     85 % 0 mm WeatherDisplay:10.37 W/m2 FEW
03:30 16.3 °C 13.8 °C 1016.1 hPa Calm     85 % 0 mm WeatherDisplay:10.37 W/m2 FEW
03:35 16.2 °C 13.7 °C 1016.1 hPa Calm     85 % 0 mm WeatherDisplay:10.37 W/m2 FEW
03:40 16.1 °C 13.6 °C 1016.1 hPa Calm     85 % 0 mm WeatherDisplay:10.37 W/m2 FEW
03:45 16 °C 13.7 °C 1016.1 hPa Calm     86 % 0 mm WeatherDisplay:10.37 W/m2 FEW
03:50 15.9 °C 13.6 °C 1016.1 hPa Calm     86 % 0 mm WeatherDisplay:10.37 W/m2 FEW
03:55 15.8 °C 13.5 °C 1016.1 hPa Calm     86 % 0 mm WeatherDisplay:10.37 W/m2 FEW
04:00 15.8 °C 13.4 °C 1016.1 hPa Calm     86 % 0 mm WeatherDisplay:10.37 W/m2 FEW
04:05 15.7 °C 13.3 °C 1016.1 hPa Calm     86 % 0 mm WeatherDisplay:10.37 W/m2 FEW
04:10 15.6 °C 13.3 °C 1016.1 hPa Calm     86 % 0 mm WeatherDisplay:10.37 W/m2 FEW
04:15 15.5 °C 13.3 °C 1016.1 hPa Calm     87 % 0 mm WeatherDisplay:10.37 W/m2 FEW
04:20 15.4 °C 13.2 °C 1016.1 hPa Calm     87 % 0 mm WeatherDisplay:10.37 W/m2 FEW
04:25 15.3 °C 13.2 °C 1016.1 hPa Calm     87 % 0 mm WeatherDisplay:10.37 W/m2 FEW
04:30 15.2 °C 13.1 °C 1015.8 hPa Calm     87 % 0 mm WeatherDisplay:10.37 W/m2 FEW
04:35 15.2 °C 13 °C 1015.8 hPa Calm     87 % 0 mm WeatherDisplay:10.37 W/m2 FEW
04:40 15.1 °C 12.9 °C 1015.8 hPa Calm     87 % 0 mm WeatherDisplay:10.37 W/m2 FEW
04:45 15 °C 12.8 °C 1015.8 hPa Calm     87 % 0 mm WeatherDisplay:10.37 W/m2 FEW
04:50 14.9 °C 12.7 °C 1015.8 hPa Calm     87 % 0 mm WeatherDisplay:10.37 W/m2 FEW
04:55 14.8 °C 12.9 °C 1015.8 hPa Calm     88 % 0 mm WeatherDisplay:10.37 W/m2 FEW
05:00 14.8 °C 12.8 °C 1015.8 hPa Calm     88 % 0 mm WeatherDisplay:10.37 W/m2 FEW
05:05 14.7 °C 12.7 °C 1015.8 hPa Calm     88 % 0 mm WeatherDisplay:10.37 W/m2 FEW
05:10 14.6 °C 12.4 °C 1015.8 hPa Calm     87 % 0 mm WeatherDisplay:10.37 W/m2 FEW
05:15 14.5 °C 12.6 °C 1015.8 hPa Calm     88 % 0 mm WeatherDisplay:10.37 W/m2 FEW
05:20 14.4 °C 12.4 °C 1015.8 hPa Calm     88 % 0 mm WeatherDisplay:10.37 W/m2 FEW
05:25 14.3 °C 12.4 °C 1016.1 hPa Calm     88 % 0 mm WeatherDisplay:10.37 W/m2 FEW
05:30 14.3 °C 12.3 °C 1016.1 hPa Calm     88 % 0 mm WeatherDisplay:10.37 W/m2 FEW
05:35 14.2 °C 12.3 °C 1016.1 hPa Calm     88 % 0 mm WeatherDisplay:10.37 W/m2 FEW
05:40 14.1 °C 12.2 °C 1016.1 hPa Calm     88 % 0 mm WeatherDisplay:10.37 W/m2 FEW
05:45 14.1 °C 12.1 °C 1016.1 hPa Calm     88 % 0 mm WeatherDisplay:10.37 W/m2 FEW
05:50 14 °C 12.1 °C 1016.1 hPa Calm     88 % 0 mm WeatherDisplay:10.37 W/m2 FEW
05:55 13.9 °C 11.9 °C 1015.8 hPa Calm     88 % 0 mm WeatherDisplay:10.37 W/m2 FEW
06:00 13.9 °C 12.1 °C 1016.1 hPa Calm     89 % 0 mm WeatherDisplay:10.37 W/m2 FEW
06:05 13.8 °C 12 °C 1016.1 hPa Calm     89 % 0 mm WeatherDisplay:10.37 W/m2 FEW
06:10 13.8 °C 12 °C 1016.1 hPa Calm     89 % 0 mm WeatherDisplay:10.37 W/m2 FEW
06:15 13.7 °C 12.1 °C 1016.1 hPa Calm     90 % 0 mm WeatherDisplay:10.37 W/m2 FEW
06:20 13.7 °C 12.1 °C 1016.1 hPa Calm     90 % 0 mm WeatherDisplay:10.37 W/m2 FEW
06:25 13.7 °C 12.1 °C 1015.8 hPa Calm     90 % 0 mm WeatherDisplay:10.37 W/m2 FEW
06:30 13.7 °C 12.3 °C 1016.1 hPa Calm     91 % 0 mm WeatherDisplay:10.37 W/m2 FEW
06:35 13.8 °C 12.5 °C 1016.1 hPa Calm     92 % 0 mm WeatherDisplay:10.37 W/m2 FEW
06:40 13.8 °C 12.6 °C 1016.1 hPa Calm     92 % 0 mm WeatherDisplay:10.37 W/m2 FEW
06:45 13.9 °C 12.7 °C 1016.1 hPa Calm     92 % 0 mm WeatherDisplay:10.37 W/m2 FEW
06:50 14.1 °C 13 °C 1016.5 hPa Calm     93 % 0 mm WeatherDisplay:10.37 W/m2 FEW
06:55 14.3 °C 13.2 °C 1016.5 hPa Calm   3.2 km/h 93 % 0 mm WeatherDisplay:10.37 W/m2 FEW
07:00 14.5 °C 13.6 °C 1016.5 hPa Calm   3.2 km/h 94 % 0 mm WeatherDisplay:10.37 W/m2 FEW
07:05 14.8 °C 13.8 °C 1016.1 hPa Calm   4.8 km/h 94 % 0 mm WeatherDisplay:10.37 W/m2 FEW
07:10 15 °C 13.9 °C 1016.1 hPa Calm     93 % 0 mm WeatherDisplay:10.37 W/m2 FEW
07:15 15.3 °C 14.2 °C 1016.1 hPa Calm   3.2 km/h 93 % 0 mm WeatherDisplay:10.37 W/m2 FEW
07:20 15.6 °C 14.3 °C 1016.5 hPa Calm   1.6 km/h 92 % 0 mm WeatherDisplay:10.37 W/m2 FEW
07:25 15.9 °C 14.5 °C 1016.5 hPa Calm   4.8 km/h 91 % 0 mm WeatherDisplay:10.37 W/m2 FEW
07:30 16.2 °C 14.4 °C 1016.5 hPa SSE 1.6 km/h 9.7 km/h 89 % 0 mm WeatherDisplay:10.37 W/m2 FEW
07:35 16.5 °C 14.5 °C 1016.5 hPa Calm   1.6 km/h 88 % 0 mm WeatherDisplay:10.37 W/m2 FEW
07:40 16.8 °C 14.6 °C 1016.1 hPa Calm     87 % 0 mm WeatherDisplay:10.37 W/m2 FEW
07:45 17 °C 14.6 °C 1016.1 hPa Calm   1.6 km/h 86 % 0 mm WeatherDisplay:10.37 W/m2 FEW
07:50 17.2 °C 14.7 °C 1016.1 hPa Calm   1.6 km/h 85 % 0 mm WeatherDisplay:10.37 W/m2 FEW
07:55 17.3 °C 14.8 °C 1016.1 hPa Calm   6.4 km/h 85 % 0 mm WeatherDisplay:10.37 W/m2 FEW
08:00 17.5 °C 14.8 °C 1016.1 hPa Calm   4.8 km/h 84 % 0 mm WeatherDisplay:10.37 W/m2 FEW
08:05 17.6 °C 14.7 °C 1016.1 hPa Calm   4.8 km/h 83 % 0 mm WeatherDisplay:10.37 W/m2 FEW
08:10 17.7 °C 14.8 °C 1016.1 hPa Calm   1.6 km/h 83 % 0 mm WeatherDisplay:10.37 W/m2 FEW
08:15 17.8 °C 14.7 °C 1016.1 hPa Calm     82 % 0 mm WeatherDisplay:10.37 W/m2 FEW
08:20 17.9 °C 15 °C 1016.5 hPa Calm   1.6 km/h 83 % 0 mm WeatherDisplay:10.37 W/m2 FEW
08:25 18 °C 14.9 °C 1016.5 hPa Calm     82 % 0 mm WeatherDisplay:10.37 W/m2 FEW
08:30 18.1 °C 14.8 °C 1016.5 hPa Calm   8 km/h 81 % 0 mm WeatherDisplay:10.37 W/m2 FEW
08:35 18.3 °C 14.9 °C 1016.5 hPa Calm   4.8 km/h 81 % 0 mm WeatherDisplay:10.37 W/m2 FEW
08:40 18.4 °C 14.9 °C 1016.5 hPa Calm   1.6 km/h 80 % 0 mm WeatherDisplay:10.37 W/m2 FEW
08:45 18.6 °C 14.8 °C 1016.5 hPa Calm   1.6 km/h 79 % 0 mm WeatherDisplay:10.37 W/m2 FEW
08:50 18.7 °C 14.9 °C 1016.5 hPa Calm   1.6 km/h 79 % 0 mm WeatherDisplay:10.37 W/m2 FEW
08:55 18.8 °C 14.8 °C 1016.5 hPa Calm   8 km/h 78 % 0 mm WeatherDisplay:10.37 W/m2 FEW
09:00 18.9 °C 14.9 °C 1016.5 hPa Calm   4.8 km/h 78 % 0 mm WeatherDisplay:10.37 W/m2 FEW
09:05 18.9 °C 14.8 °C 1016.5 hPa Calm     77 % 0 mm WeatherDisplay:10.37 W/m2 FEW
09:10 19 °C 14.7 °C 1016.5 hPa Calm   1.6 km/h 76 % 0 mm WeatherDisplay:10.37 W/m2 FEW
09:15 19.1 °C 14.8 °C 1016.8 hPa Calm   8 km/h 76 % 0 mm WeatherDisplay:10.37 W/m2 FEW
09:20 19.2 °C 14.8 °C 1016.8 hPa Calm   6.4 km/h 76 % 0 mm WeatherDisplay:10.37 W/m2 FEW
09:25 19.2 °C 14.8 °C 1016.8 hPa Calm   1.6 km/h 76 % 0 mm WeatherDisplay:10.37 W/m2 FEW
09:30 19.2 °C 14.7 °C 1016.8 hPa Calm     75 % 0 mm WeatherDisplay:10.37 W/m2 FEW
09:35 19.3 °C 14.7 °C 1017.2 hPa Calm   3.2 km/h 75 % 0 mm WeatherDisplay:10.37 W/m2 FEW
09:40 19.3 °C 14.5 °C 1017.2 hPa Calm   8 km/h 74 % 0 mm WeatherDisplay:10.37 W/m2 FEW
09:45 19.3 °C 14.7 °C 1017.2 hPa Calm   3.2 km/h 75 % 0 mm WeatherDisplay:10.37 W/m2 FEW
09:50 19.3 °C 15.2 °C 1017.2 hPa Calm     77 % 0 mm WeatherDisplay:10.37 W/m2 FEW
09:55 19.3 °C 15.7 °C 1017.2 hPa Calm     80 % 0.25 mm WeatherDisplay:10.37 W/m2 RA
10:00 19.2 °C 15.9 °C 1017.2 hPa Calm     81 % 0 mm WeatherDisplay:10.37 W/m2 RA
10:05 19.1 °C 16 °C 1017.2 hPa Calm     82 % 0 mm WeatherDisplay:10.37 W/m2 FEW
10:10 19 °C 16.1 °C 1017.2 hPa Calm   1.6 km/h 83 % 0.25 mm WeatherDisplay:10.37 W/m2 RA
10:15 18.8 °C 15.9 °C 1017.5 hPa Calm   1.6 km/h 83 % 0 mm WeatherDisplay:10.37 W/m2 RA
10:20 18.7 °C 15.9 °C 1017.5 hPa Calm     84 % 0 mm WeatherDisplay:10.37 W/m2 FEW
10:25 18.6 °C 16 °C 1017.2 hPa Calm   1.6 km/h 85 % 0.25 mm WeatherDisplay:10.37 W/m2 RA
10:30 18.4 °C 16.1 °C 1017.2 hPa Calm   1.6 km/h 86 % 0 mm WeatherDisplay:10.37 W/m2 RA
10:35 18.3 °C 16.1 °C 1017.2 hPa Calm   1.6 km/h 87 % 0 mm WeatherDisplay:10.37 W/m2 FEW
10:40 18.2 °C 16 °C 1017.2 hPa Calm   1.6 km/h 87 % 0 mm WeatherDisplay:10.37 W/m2 FEW
10:45 18.1 °C 16.1 °C 1017.2 hPa Calm     88 % 0 mm WeatherDisplay:10.37 W/m2 FEW
10:50 18.1 °C 16.1 °C 1017.2 hPa Calm     88 % 0 mm WeatherDisplay:10.37 W/m2 FEW
10:55 18 °C 16 °C 1017.2 hPa Calm     88 % 0 mm WeatherDisplay:10.37 W/m2 FEW
11:00 17.9 °C 15.9 °C 1017.2 hPa Calm     88 % 0 mm WeatherDisplay:10.37 W/m2 FEW
11:05 17.9 °C 15.8 °C 1017.2 hPa Calm   1.6 km/h 88 % 0 mm WeatherDisplay:10.37 W/m2 FEW
11:10 17.8 °C 15.8 °C 1017.2 hPa Calm     88 % 0 mm WeatherDisplay:10.37 W/m2 FEW
11:15 17.8 °C 16 °C 1017.2 hPa Calm   3.2 km/h 89 % 0 mm WeatherDisplay:10.37 W/m2 FEW
11:20 17.8 °C 16 °C 1017.2 hPa Calm     89 % 0 mm WeatherDisplay:10.37 W/m2 FEW
11:25 17.8 °C 15.9 °C 1017.2 hPa Calm     89 % 0.25 mm WeatherDisplay:10.37 W/m2 RA
11:30 17.8 °C 15.9 °C 1017.2 hPa Calm     89 % 0 mm WeatherDisplay:10.37 W/m2 RA
11:35 17.7 °C 15.9 °C 1016.8 hPa Calm   1.6 km/h 89 % 0.25 mm WeatherDisplay:10.37 W/m2 RA
11:40 17.6 °C 15.8 °C 1017.2 hPa East 3.2 km/h 14.5 km/h 89 % 0.25 mm WeatherDisplay:10.37 W/m2 RA
11:45 17.5 °C 15.7 °C 1017.2 hPa Calm     89 % 0.25 mm WeatherDisplay:10.37 W/m2 RA
11:50 17.4 °C 15.6 °C 1017.2 hPa Calm     89 % 0 mm WeatherDisplay:10.37 W/m2 RA
11:55 17.3 °C 15.5 °C 1017.2 hPa Calm     89 % 0.25 mm WeatherDisplay:10.37 W/m2 RA
12:00 17.2 °C 15.6 °C 1016.8 hPa Calm     90 % 0 mm WeatherDisplay:10.37 W/m2 RA
12:05 17.2 °C 15.5 °C 1016.8 hPa Calm   3.2 km/h 90 % 0 mm WeatherDisplay:10.37 W/m2 FEW
12:10 17.1 °C 15.4 °C 1016.8 hPa Calm   3.2 km/h 90 % 0 mm WeatherDisplay:10.37 W/m2 FEW
12:15 17 °C 15.6 °C 1016.5 hPa Calm     91 % 0.25 mm WeatherDisplay:10.37 W/m2 RA
12:20 17 °C 15.5 °C 1016.5 hPa Calm   3.2 km/h 91 % 0 mm WeatherDisplay:10.37 W/m2 RA
12:25 16.9 °C 15.4 °C 1016.5 hPa Calm   6.4 km/h 91 % 0.25 mm WeatherDisplay:10.37 W/m2 RA
12:30 16.9 °C 15.6 °C 1016.5 hPa Calm   4.8 km/h 92 % 0 mm WeatherDisplay:10.37 W/m2 RA
12:35 16.9 °C 15.6 °C 1016.5 hPa Calm   3.2 km/h 92 % 0.25 mm WeatherDisplay:10.37 W/m2 RA
12:40 16.9 °C 15.6 °C 1016.5 hPa Calm   3.2 km/h 92 % 0 mm WeatherDisplay:10.37 W/m2 RA
Juneau County Weather
Compliments of Weather Underground - 2.25 mb